Date String (YYYY-MM-DD hh:mm:ss) UTC,Instrument flags,Ambient pressure (hPa),Sample flow (lpm),Bypass flow (lpm),Sample temperature (°C),Ambient temperature (°C),ASC tube jacket temperature (°C),LED temperature (°C),Box temperature (°C),Sample RH (%),Span deviation,Mass concentration (μg/m³),Mass concentration (μg/m³),Mass concentration (μg/m³)
DateTimeUTC,F1_M11,P_M11,Q1_M11,Q2_M11,T1_M11,T2_M11,T3_M11,T4_M11,T5_M11,U1_M11,ZSPAN_M11,X0_M11,X2_M11,X1_M11
2022-04-03 22:00:00,,0823.4,5.00,0.00,25.6,24.8,00.0,34.6,27.4,12.5,0000.0,0023.12,0007.19,0004.99
2022-04-03 22:01:00,,0823.4,5.00,0.00,25.6,24.8,00.0,34.6,27.4,12.3,0000.0,0022.91,0007.17,0005.00
2022-04-03 22:02:00,,0823.4,5.00,0.00,25.6,24.8,00.0,34.6,27.4,12.3,0000.0,0024.07,0007.21,0005.02
2022-04-03 22:03:00,,0823.5,5.00,0.00,25.6,24.8,00.0,34.6,27.4,12.4,0000.0,0025.18,0007.28,0005.03
2022-04-03 22:04:00,,0823.5,5.00,0.00,25.6,24.8,00.0,34.6,27.4,12.4,0000.0,0024.96,0007.27,0005.03
2022-04-03 22:05:00,,0823.6,5.00,0.00,25.6,24.8,00.0,34.6,27.4,12.6,0000.0,0025.61,0007.28,0005.03
2022-04-03 22:06:00,,0823.5,5.00,0.00,25.6,24.8,00.0,34.6,27.4,12.7,0000.0,0025.32,0007.28,0005.03
2022-04-03 22:07:00,,0823.6,5.00,0.00,25.6,24.9,00.0,34.6,27.4,12.5,0000.0,0024.69,0007.36,0005.05
2022-04-03 22:08:00,,0823.6,5.00,0.00,25.6,24.9,00.0,34.6,27.4,12.8,0000.0,0024.91,0007.39,0005.03
2022-04-03 22:09:00,,0823.6,5.00,0.00,25.6,24.9,00.0,34.6,27.4,12.5,0000.0,0026.01,0007.56,0005.06
2022-04-03 22:10:00,,0823.7,4.98,0.00,25.6,24.9,00.0,34.6,27.4,12.4,0000.0,0026.48,0007.73,0005.11
2022-04-03 22:11:00,,0823.6,5.00,0.00,25.6,24.8,00.0,34.6,27.4,12.5,0000.0,0026.39,0007.80,0005.11
2022-04-03 22:12:00,,0823.6,5.01,0.00,25.6,24.9,00.0,34.6,27.4,12.4,0000.0,0027.22,0007.76,0005.09
2022-04-03 22:13:00,,0823.7,5.00,0.00,25.6,24.8,00.0,34.6,27.4,12.3,0000.0,0026.57,0007.80,0005.09
2022-04-03 22:14:00,,0823.7,5.00,0.00,25.6,24.8,00.0,34.6,27.4,12.1,0000.0,0024.38,0007.75,0005.08
2022-04-03 22:15:00,,0823.6,5.00,0.00,25.6,24.7,00.0,34.6,27.4,12.3,0000.0,0023.68,0007.72,0005.08
2022-04-03 22:16:00,,0823.7,4.99,0.00,25.6,24.7,00.0,34.6,27.3,12.3,0000.0,0023.29,0007.73,0005.08
2022-04-03 22:17:00,,0823.6,4.98,0.00,25.6,24.8,00.0,34.6,27.4,12.5,0000.0,0022.83,0007.68,0005.08
2022-04-03 22:18:00,,0823.6,5.01,0.00,25.6,24.8,00.0,34.6,27.4,12.4,0000.0,0023.49,0007.63,0005.08
2022-04-03 22:19:00,,0823.6,4.99,0.00,25.6,24.8,00.0,34.6,27.4,12.3,0000.0,0022.92,0007.56,0005.07
2022-04-03 22:20:00,,0823.6,5.00,0.00,25.6,24.8,00.0,34.6,27.4,12.2,0000.0,0021.82,0007.48,0005.06
2022-04-03 22:21:00,,0823.6,5.00,0.00,25.6,24.8,00.0,34.6,27.4,12.0,0000.0,0020.75,0007.39,0005.04
2022-04-03 22:22:00,,0823.6,5.00,0.00,25.6,24.7,00.0,34.6,27.4,12.0,0000.0,0020.50,0007.33,0005.04
2022-04-03 22:23:00,,0823.5,4.99,0.00,25.6,24.8,00.0,34.6,27.4,12.1,0000.0,0020.59,0007.35,0005.06
2022-04-03 22:24:00,,0823.6,5.00,0.00,25.6,24.8,00.0,34.6,27.4,12.3,0000.0,0021.28,0007.29,0005.07
2022-04-03 22:25:00,,0823.6,5.01,0.00,25.6,24.8,00.0,34.6,27.4,12.4,0000.0,0021.97,0007.30,0005.07
2022-04-03 22:26:00,,0823.6,5.01,0.00,25.6,24.9,00.0,34.6,27.5,12.4,0000.0,0022.40,0007.30,0005.05
2022-04-03 22:27:00,,0823.6,5.00,0.00,25.6,24.9,00.0,34.6,27.4,12.3,0000.0,0022.42,0007.17,0005.04
2022-04-03 22:28:00,,0823.6,5.00,0.00,25.6,24.8,00.0,34.6,27.4,12.0,0000.0,0023.10,0007.18,0005.04
2022-04-03 22:29:00,,0823.7,4.99,0.00,25.6,24.8,00.0,34.6,27.4,12.1,0000.0,0022.46,0007.22,0005.05
2022-04-03 22:30:00,,0823.6,4.99,0.00,25.6,24.8,00.0,34.6,27.4,12.1,0000.0,0024.11,0007.26,0005.06
2022-04-03 22:31:00,,0823.6,5.00,0.00,25.6,24.8,00.0,34.6,27.4,11.9,0000.0,0025.43,0007.24,0005.06
2022-04-03 22:32:00,,0823.6,5.01,0.00,25.6,24.8,00.0,34.6,27.4,12.1,0000.0,0027.56,0007.21,0005.03
2022-04-03 22:33:00,,0823.6,5.00,0.00,25.6,24.8,00.0,34.6,27.4,12.3,0000.0,0027.83,0007.12,0005.00
2022-04-03 22:34:00,,0823.6,5.00,0.00,25.6,24.8,00.0,34.6,27.4,11.8,0000.0,0027.26,0007.10,0004.97
2022-04-03 22:35:00,,0823.6,5.00,0.00,25.6,24.7,00.0,34.6,27.4,11.9,0000.0,0027.26,0007.07,0004.95
2022-04-03 22:36:00,,0823.6,5.00,0.00,25.6,24.7,00.0,34.6,27.4,12.0,0000.0,0028.03,0007.08,0004.93
2022-04-03 22:37:00,,0823.6,5.00,0.00,25.6,24.7,00.0,34.6,27.4,12.0,0000.0,0028.67,0007.04,0004.93
2022-04-03 22:38:00,,0823.6,5.00,0.00,25.6,24.8,00.0,34.6,27.4,11.9,0000.0,0028.22,0007.09,0004.93
2022-04-03 22:39:00,,0823.6,5.00,0.00,25.6,24.8,00.0,34.6,27.4,11.7,0000.0,0027.21,0007.05,0004.91
2022-04-03 22:40:00,,0823.6,5.00,0.00,25.6,24.8,00.0,34.6,27.4,11.7,0000.0,0026.39,0006.99,0004.90
2022-04-03 22:41:00,,0823.6,5.00,0.00,25.6,24.8,00.0,34.6,27.4,11.8,0000.0,0024.36,0006.96,0004.87
2022-04-03 22:42:00,,0823.6,5.00,0.00,25.6,24.8,00.0,34.6,27.5,12.0,0000.0,0022.84,0006.92,0004.85
2022-04-03 22:43:00,,0823.7,5.00,0.00,25.6,24.9,00.0,34.6,27.4,11.7,0000.0,0020.91,0006.88,0004.82
2022-04-03 22:44:00,,0823.7,5.00,0.00,25.6,24.8,00.0,34.6,27.4,11.4,0000.0,0020.11,0006.92,0004.82
2022-04-03 22:45:00,,0823.7,4.99,0.00,25.6,24.8,00.0,34.6,27.4,11.4,0000.0,0019.60,0006.90,0004.82
2022-04-03 22:46:00,,0823.6,5.00,0.00,25.6,24.8,00.0,34.6,27.4,11.6,0000.0,0020.35,0006.89,0004.80
2022-04-03 22:47:00,,0823.6,5.00,0.00,25.6,24.7,00.0,34.6,27.4,11.7,0000.0,0019.11,0006.83,0004.78
2022-04-03 22:48:00,,0823.7,5.00,0.00,25.6,24.7,00.0,34.6,27.4,11.5,0000.0,0017.84,0006.83,0004.77
2022-04-03 22:49:00,,0823.7,5.01,0.00,25.6,24.7,00.0,34.6,27.4,11.4,0000.0,0019.27,0006.85,0004.78
2022-04-03 22:50:00,,0823.7,5.00,0.00,25.6,24.7,00.0,34.6,27.4,11.4,0000.0,0019.50,0006.85,0004.77
2022-04-03 22:51:00,,0823.7,5.00,0.00,25.6,24.8,00.0,34.6,27.4,11.5,0000.0,0020.50,0006.93,0004.76
2022-04-03 22:52:00,,0823.6,5.00,0.00,25.6,24.8,00.0,34.6,27.4,11.7,0000.0,0021.08,0006.91,0004.74
2022-04-03 22:53:00,,0823.7,5.00,0.00,25.6,24.8,00.0,34.6,27.4,11.4,0000.0,0021.45,0006.97,0004.73
2022-04-03 22:54:00,,0823.7,5.00,0.00,25.6,24.8,00.0,34.6,27.4,11.3,0000.0,0022.32,0006.99,0004.75
2022-04-03 22:55:00,,0823.7,5.00,0.00,25.6,24.8,00.0,34.6,27.4,11.4,0000.0,0023.22,0006.98,0004.74
2022-04-03 22:56:00,,0823.7,4.99,0.00,25.6,24.8,00.0,34.6,27.4,11.4,0000.0,0023.06,0006.99,0004.74
2022-04-03 22:57:00,,0823.7,5.00,0.00,25.6,24.8,00.0,34.6,27.4,11.3,0000.0,0021.72,0007.01,0004.73
2022-04-03 22:58:00,,0823.7,5.00,0.00,25.6,24.8,00.0,34.6,27.5,11.5,0000.0,0021.81,0006.95,0004.72
2022-04-03 22:59:00,,0823.8,5.00,0.00,25.6,24.8,00.0,34.6,27.5,11.3,0000.0,0022.29,0006.95,0004.70
